EN

Hourly Weather Ames

Today, 23 January, Saturday

Time Temperature Precipitation Wind Pressure Humidity
00:00 -13°C° 0 mm 1 mps 744 mmHg 79%
01:00 -13°C° 0 mm 1 mps 743 mmHg 79%
02:00 -15°C° 0 mm 2 mps 743 mmHg 79%
03:00 -15°C° 0 mm 2 mps 743 mmHg 79%
04:00 -15°C° 0 mm 2 mps 743 mmHg 79%
05:00 -15°C° 0 mm 2 mps 743 mmHg 80%
06:00 -16°C° 0 mm 3 mps 743 mmHg 80%
07:00 -15°C° 0 mm 3 mps 743 mmHg 79%
08:00 -15°C° 0 mm 4 mps 743 mmHg 77%
09:00 -15°C° 0 mm 4 mps 743 mmHg 75%
10:00 -14°C° 0 mm 4 mps 742 mmHg 76%
11:00 -12°C° 0 mm 4 mps 742 mmHg 77%
12:00 -12°C° 0 mm 5 mps 741 mmHg 78%
13:00 -11°C° 0 mm 5 mps 740 mmHg 78%
14:00 -11°C° 0 mm 5 mps 739 mmHg 77%
15:00 -10°C° 0 mm 5 mps 738 mmHg 76%
16:00 -10°C° 0.4 mm 5 mps 738 mmHg 82%
17:00 -10°C° 0.4 mm 5 mps 738 mmHg 87%
18:00 -10°C° 0.4 mm 5 mps 737 mmHg 93%
19:00 -10°C° 0.7 mm 5 mps 737 mmHg 94%
20:00 -9°C° 0.7 mm 4 mps 737 mmHg 94%
21:00 -8°C° 0.7 mm 4 mps 737 mmHg 95%
22:00 -7°C° 0.3 mm 3 mps 736 mmHg 95%
23:00 -7°C° 0.3 mm 3 mps 736 mmHg 96%

Tomorrow, 24 January, Sunday

Time Temperature Precipitation Wind Pressure Humidity
00:00 -6°C° 0.3 mm 2 mps 736 mmHg 96%
01:00 -4°C° 0.1 mm 1 mps 736 mmHg 96%
02:00 -6°C° 0.1 mm 1 mps 736 mmHg 96%
03:00 -6°C° 0.1 mm 1 mps 736 mmHg 96%
04:00 -6°C° 0 mm 1 mps 736 mmHg 96%
05:00 -7°C° 0 mm 1 mps 736 mmHg 95%
06:00 -8°C° 0 mm 2 mps 736 mmHg 95%
07:00 -8°C° 0 mm 2 mps 736 mmHg 95%
08:00 -9°C° 0 mm 2 mps 737 mmHg 94%
09:00 -10°C° 0 mm 3 mps 737 mmHg 94%
10:00 -9°C° 0 mm 3 mps 738 mmHg 93%
11:00 -8°C° 0 mm 3 mps 738 mmHg 92%
12:00 -8°C° 0 mm 3 mps 738 mmHg 91%
13:00 -8°C° 0 mm 3 mps 738 mmHg 91%
14:00 -7°C° 0 mm 3 mps 737 mmHg 91%
15:00 -7°C° 0 mm 3 mps 737 mmHg 91%
16:00 -8°C° 0 mm 3 mps 737 mmHg 92%
17:00 -10°C° 0 mm 3 mps 737 mmHg 93%
18:00 -12°C° 0 mm 3 mps 737 mmHg 94%
19:00 -12°C° 0 mm 3 mps 737 mmHg 93%
20:00 -12°C° 0 mm 3 mps 737 mmHg 93%
21:00 -13°C° 0 mm 3 mps 737 mmHg 93%
22:00 -13°C° 0 mm 3 mps 737 mmHg 94%
23:00 -13°C° 0 mm 3 mps 737 mmHg 94%

Day after tomorrow, 25 January, Monday

Time Temperature Precipitation Wind Pressure Humidity
00:00 -12°C° 0 mm 4 mps 737 mmHg 95%
01:00 -14°C° 0 mm 4 mps 736 mmHg 94%
02:00 -14°C° 0 mm 4 mps 736 mmHg 94%
03:00 -14°C° 0 mm 4 mps 736 mmHg 94%
04:00 -12°C° 0.1 mm 4 mps 735 mmHg 94%
05:00 -13°C° 0.1 mm 5 mps 735 mmHg 93%
06:00 -12°C° 0.1 mm 5 mps 735 mmHg 93%
07:00 -12°C° 0 mm 5 mps 735 mmHg 93%
08:00 -12°C° 0 mm 5 mps 735 mmHg 93%
09:00 -12°C° 0 mm 5 mps 735 mmHg 93%
10:00 -12°C° 0.1 mm 5 mps 735 mmHg 93%
11:00 -11°C° 0.1 mm 5 mps 735 mmHg 93%
12:00 -10°C° 0.1 mm 5 mps 735 mmHg 93%
13:00 -10°C° 0 mm 5 mps 734 mmHg 92%
14:00 -10°C° 0 mm 5 mps 734 mmHg 92%
15:00 -9°C° 0 mm 6 mps 734 mmHg 91%
16:00 -8°C° 0 mm 5 mps 735 mmHg 91%
17:00 -8°C° 0 mm 5 mps 735 mmHg 91%
18:00 -8°C° 0 mm 5 mps 736 mmHg 91%
19:00 -8°C° 0 mm 5 mps 736 mmHg 91%
20:00 -10°C° 0 mm 5 mps 737 mmHg 91%
21:00 -10°C° 0 mm 5 mps 737 mmHg 91%
22:00 -11°C° 0 mm 4 mps 738 mmHg 91%
23:00 -12°C° 0 mm 4 mps 738 mmHg 91%

26 January, Tuesday

Time Temperature Precipitation Wind Pressure Humidity
00:00 -15°C° 0 mm 4 mps 739 mmHg 91%
01:00 -15°C° 0 mm 4 mps 739 mmHg 91%
02:00 -16°C° 0 mm 4 mps 740 mmHg 91%
03:00 -15°C° 0 mm 3 mps 740 mmHg 91%
04:00 -16°C° 0 mm 3 mps 740 mmHg 91%
05:00 -17°C° 0 mm 4 mps 741 mmHg 91%
06:00 -17°C° 0 mm 4 mps 741 mmHg 92%
07:00 -17°C° 0 mm 4 mps 741 mmHg 92%
08:00 -16°C° 0 mm 4 mps 742 mmHg 92%
09:00 -16°C° 0 mm 4 mps 742 mmHg 92%
10:00 -15°C° 0 mm 4 mps 742 mmHg 92%
11:00 -13°C° 0 mm 3 mps 742 mmHg 92%
12:00 -12°C° 0 mm 3 mps 742 mmHg 91%
13:00 -10°C° 0 mm 3 mps 742 mmHg 91%
14:00 -10°C° 0 mm 3 mps 741 mmHg 91%
15:00 -9°C° 0 mm 3 mps 741 mmHg 91%
16:00 -10°C° 0 mm 4 mps 741 mmHg 92%
17:00 -11°C° 0 mm 4 mps 741 mmHg 92%
18:00 -11°C° 0 mm 4 mps 741 mmHg 93%
19:00 -11°C° 0 mm 4 mps 741 mmHg 93%
20:00 -11°C° 0 mm 4 mps 741 mmHg 93%
21:00 -11°C° 0 mm 4 mps 741 mmHg 93%
22:00 -11°C° 0 mm 4 mps 741 mmHg 93%
23:00 -11°C° 0 mm 4 mps 741 mmHg 93%

27 January, Wednesday

Time Temperature Precipitation Wind Pressure Humidity
00:00 -11°C° 0 mm 4 mps 741 mmHg 94%
01:00 -11°C° 0 mm 4 mps 741 mmHg 93%
02:00 -11°C° 0 mm 4 mps 741 mmHg 93%
03:00 -11°C° 0 mm 4 mps 741 mmHg 93%
04:00 -11°C° 0.2 mm 4 mps 741 mmHg 93%
05:00 -12°C° 0.2 mm 5 mps 741 mmHg 94%
06:00 -12°C° 0.2 mm 5 mps 741 mmHg 94%
07:00 -12°C° 0.3 mm 5 mps 742 mmHg 94%
08:00 -12°C° 0.3 mm 5 mps 742 mmHg 94%
09:00 -11°C° 0.3 mm 4 mps 742 mmHg 94%
10:00 -10°C° 0.2 mm 4 mps 742 mmHg 93%
11:00 -9°C° 0.2 mm 4 mps 742 mmHg 93%
12:00 -8°C° 0.2 mm 4 mps 742 mmHg 92%
13:00 -8°C° 0.1 mm 4 mps 742 mmHg 92%
14:00 -6°C° 0.1 mm 3 mps 742 mmHg 92%
15:00 -6°C° 0.1 mm 3 mps 742 mmHg 92%
16:00 -7°C° 0 mm 3 mps 743 mmHg 93%
17:00 -6°C° 0 mm 2 mps 743 mmHg 94%
18:00 -7°C° 0 mm 2 mps 744 mmHg 95%
19:00 -7°C° 0 mm 2 mps 744 mmHg 95%
20:00 -8°C° 0 mm 3 mps 745 mmHg 95%
21:00 -7°C° 0 mm 3 mps 745 mmHg 94%
22:00 -7°C° 0 mm 3 mps 745 mmHg 94%
23:00 -7°C° 0 mm 3 mps 745 mmHg 94%

28 January, Thursday

Time Temperature Precipitation Wind Pressure Humidity
00:00 -8°C° 0 mm 4 mps 746 mmHg 93%
01:00 -9°C° 0 mm 4 mps 746 mmHg 94%
02:00 -10°C° 0 mm 4 mps 746 mmHg 95%
03:00 -11°C° 0 mm 4 mps 746 mmHg 95%
04:00 -11°C° 0 mm 4 mps 746 mmHg 95%
05:00 -12°C° 0 mm 4 mps 746 mmHg 96%
06:00 -14°C° 0 mm 4 mps 745 mmHg 96%
07:00 -12°C° 0 mm 4 mps 746 mmHg 95%
08:00 -12°C° 0 mm 5 mps 746 mmHg 95%
09:00 -12°C° 0 mm 5 mps 746 mmHg 94%
10:00 -10°C° 0 mm 6 mps 745 mmHg 94%
11:00 -9°C° 0 mm 6 mps 745 mmHg 93%
12:00 -8°C° 0 mm 6 mps 745 mmHg 93%
Show more